sat.trackr.live / text

‹ back to catalog

STARLINK-5903

NORAD 55996 · 2023-042L

PAYLOAD ACTIVE UNKNOWN

§ Identity

Operator
Country
US
Launch date
2023-03-24
Launch site
AFETR
Launch vehicle
Mass (kg)
RCS (m²)

Purposes: comms

External: N2YO · Heavens-Above · Gunter

§ Orbital elements

Epoch: 2026-05-24T22:31:22.980288Z

Period
94.32 min
Inclination
43.0051°
Eccentricity
0.0001131
Mean motion
15.26740636 rev/d
Perigee alt
484.8 km
Apogee alt
486.3 km
Semi-major
6,863.7 km
B*
-1.4415e-6
RAAN
348.7467°
Arg perigee
240.0070°
Mean anomaly
120.0669°
Rev number
17,452

§ Raw data

STARLINK-59031 55996U 23042L   26144.93846042 -.00000298  00000+0 -14415-5 0  99982 55996  43.0051 348.7467 0001131 240.0070 120.0669 15.26740636174520

JSON: /api/v1/satellites/55996 · /tle

For live sub-satellite position, see the globe view (requires WebGL).

§ Visibility from observer

Set your observer location to see the next 7 days of passes ≥ 10°. The values pass through the URL so the page stays shareable.

No JS? Fill the form by hand. The geolocation button needs JavaScript.